Simultaneous Nadir Overpasses (SNOs) Predictions

Prediction of SNOs between TERRA and METOP-C Satellite Orbit:

Table of predicted SNOs for the next 14.0 days since TLE Epoch: 2/4/2023
Index Date (TERRA) Time (TERRA) Lat,Lon (TERRA) SZA (TERRA ) Date (METOP-C) Time (METOP-C) Lat,Lon (METOP-C) SZA (METOP-C ) Distance(km) Time Diff (sec)
1 02/06/2023 11:09:12 -80.94,-131.85 82.16 02/06/2023 11:08:46 -80.94,-131.71 82.16 2.42 26
2 02/06/2023 11:58:33 80.99, 36.36 97.92 02/06/2023 11:59:24 80.99, 36.50 97.95 2.31 51
3 02/09/2023 03:20:40 -80.94, -14.78 83.01 02/09/2023 03:20:27 -80.94, -14.71 83.00 1.37 13
4 02/09/2023 04:10:01 80.98, 153.38 97.06 02/09/2023 04:11:05 80.98, 153.43 97.09 0.86 64
5 02/11/2023 19:32:07 -80.95, 102.46 83.86 02/11/2023 19:32:07 -80.95, 102.61 83.84 2.53 0
6 02/14/2023 10:54:11 80.91, 51.47 95.20 02/14/2023 10:53:07 80.91, 51.52 95.18 0.80 64
7 02/14/2023 11:43:33 -80.95,-140.46 84.76 02/14/2023 11:43:47 -80.94,-140.50 84.76 0.77 14
8 02/17/2023 03:05:38 80.89, 168.33 94.24 02/17/2023 03:04:48 80.90, 168.29 94.22 0.85 50



Historial Predications of SNOs between TERRA and METOP-C
